Weather History for Clermont County, Batavia, OH

Change the Weather History Date:

Tuesday, May 6, 2014

  Actual Average (KLUK) Record (KLUK)
Temperature  
Mean Temperature 62 °F -  
Max Temperature 75 °F 72 °F 92 °F (1952)
Min Temperature 50 °F 49 °F 32 °F (1957)
Degree Days  
Heating Degree Days 2    
Growing Degree Days 12 (Base 50)    
Moisture  
Dew Point 43 °F    
Average Humidity 48    
Maximum Humidity 71    
Minimum Humidity 35    
Precipitation  
Precipitation 0.00 in - - ()
Sea Level Pressure  
Sea Level Pressure 29.93 in    
Wind  
Wind Speed 4 mph (East)    
Max Wind Speed 10 mph    
Max Gust Speed 16 mph    
Visibility 10 miles    
Events      
Averages and records for this station are not official NWS values.
T = Trace of Precipitation, MM = Missing Value Source: NWS Daily Summary

Daily Weather History Graph

Daily Weather History Graph

Search for Another Location

Airport:

Trip Planner

Search our weather history database for the weather conditions in past years. The results will help you decide how hot, cold, wet, or windy it might be!

Date:

Astronomy

May. 06, 2014 Rise Set
Actual Time 6:32 AM EDT 8:34 PM EDT
Civil Twilight 6:03 AM EDT 9:03 PM EDT
Nautical Twilight 5:27 AM EDT 9:39 PM EDT
Astronomical Twilight 4:49 AM EDT 10:18 PM EDT
Moon 12:47 PM EDT (5/6) 1:53 AM EDT (5/6)
Length of Visible Light 15h 00m
Length of Day
14h 01m
Waxing Crescent, 46% of the Moon is Illuminated
May 6
Waxing Crescent
May 6
First Quarter
May 14
Full
May 21
Last Quarter
May 28
New

Hourly Weather History & Observations

Time (EDT) Temp. Dew Point Humidity Pressure Visibility Wind Dir Wind Speed Gust Speed Precip Events Conditions
12:15 AM 53.6 °F 42.8 °F 67% 29.89 in 10.0 mi Calm Calm - N/A   Clear
12:34 AM 53.6 °F 41.0 °F 62% 29.90 in 10.0 mi NE 4.6 mph - N/A   Clear
12:54 AM 51.8 °F 41.0 °F 67% 29.90 in 10.0 mi Calm Calm - N/A   Clear
1:15 AM 51.8 °F 41.0 °F 67% 29.90 in 10.0 mi NE 3.5 mph - N/A   Clear
1:34 AM 51.8 °F 41.0 °F 67% 29.90 in 10.0 mi Calm Calm - N/A   Clear
1:55 AM 51.8 °F 41.0 °F 67% 29.89 in 10.0 mi Calm Calm - N/A   Clear
2:15 AM 51.8 °F 41.0 °F 67% 29.90 in 10.0 mi NNE 5.8 mph - N/A   Clear
2:34 AM 50.0 °F 41.0 °F 71% 29.90 in 10.0 mi NE 4.6 mph - N/A   Clear
2:55 AM 50.0 °F 39.2 °F 66% 29.90 in 10.0 mi NNE 4.6 mph - N/A   Scattered Clouds
3:15 AM 50.0 °F 39.2 °F 66% 29.90 in 10.0 mi NE 3.5 mph - N/A   Scattered Clouds
3:34 AM 50.0 °F 39.2 °F 66% 29.90 in 10.0 mi Calm Calm - N/A   Mostly Cloudy
7:55 AM 51.8 °F 39.2 °F 62% 29.97 in 10.0 mi East 5.8 mph - N/A   Scattered Clouds
8:15 AM 51.8 °F 39.2 °F 62% 29.97 in 10.0 mi East 4.6 mph - N/A   Clear
8:34 AM 51.8 °F 39.2 °F 62% 29.98 in 10.0 mi East 6.9 mph - N/A   Clear
8:55 AM 53.6 °F 39.2 °F 58% 29.97 in 10.0 mi East 6.9 mph - N/A   Clear
9:14 AM 53.6 °F 39.2 °F 58% 29.98 in 10.0 mi East 4.6 mph - N/A   Clear
10:14 AM 59.0 °F 41.0 °F 51% 29.98 in 10.0 mi East 9.2 mph - N/A   Clear
10:34 AM 59.0 °F 39.2 °F 48% 29.98 in 10.0 mi ESE 8.1 mph - N/A   Clear
10:55 AM 60.8 °F 39.2 °F 45% 29.98 in 10.0 mi East 8.1 mph - N/A   Clear
11:14 AM 62.6 °F 41.0 °F 45% 29.98 in 10.0 mi ENE 8.1 mph - N/A   Clear
11:34 AM 62.6 °F 41.0 °F 45% 29.98 in 10.0 mi ESE 8.1 mph - N/A   Clear
11:55 AM 64.4 °F 41.0 °F 42% 29.98 in 10.0 mi East 5.8 mph - N/A   Clear
12:14 PM 64.4 °F 42.8 °F 45% 29.97 in 10.0 mi East 9.2 mph - N/A   Clear
12:35 PM 64.4 °F 41.0 °F 42% 29.97 in 10.0 mi ENE 10.4 mph - N/A   Clear
12:55 PM 68.0 °F 42.8 °F 40% 29.97 in 10.0 mi East 8.1 mph - N/A   Clear
1:14 PM 68.0 °F 42.8 °F 40% 29.96 in 10.0 mi East 8.1 mph - N/A   Clear
1:35 PM 69.8 °F 42.8 °F 38% 29.96 in 10.0 mi East 5.8 mph 16.1 mph N/A   Clear
1:55 PM 69.8 °F 42.8 °F 38% 29.95 in 10.0 mi East 5.8 mph - N/A   Clear
2:14 PM 69.8 °F 42.8 °F 38% 29.95 in 10.0 mi ENE 8.1 mph - N/A   Clear
2:35 PM 71.6 °F 42.8 °F 35% 29.95 in 10.0 mi East 5.8 mph - N/A   Clear
2:55 PM 71.6 °F 42.8 °F 35% 29.95 in 10.0 mi East 6.9 mph - N/A   Clear
3:14 PM 71.6 °F 44.6 °F 38% 29.94 in 10.0 mi East 8.1 mph - N/A   Clear
3:35 PM 73.4 °F 44.6 °F 36% 29.93 in 10.0 mi East 8.1 mph - N/A   Clear
3:55 PM 73.4 °F 44.6 °F 36% 29.92 in 10.0 mi East 10.4 mph - N/A   Clear
4:14 PM 73.4 °F 44.6 °F 36% 29.91 in 10.0 mi East 6.9 mph - N/A   Clear
4:55 PM 75.2 °F 46.4 °F 36% 29.91 in 10.0 mi East 8.1 mph - N/A   Clear
5:14 PM 75.2 °F 46.4 °F 36% 29.91 in 10.0 mi ENE 3.5 mph - N/A   Clear
5:35 PM 75.2 °F 46.4 °F 36% 29.91 in 10.0 mi East 6.9 mph - N/A   Clear
5:55 PM 75.2 °F 46.4 °F 36% 29.91 in 10.0 mi ENE 3.5 mph - N/A   Clear
6:14 PM 75.2 °F 46.4 °F 36% 29.91 in 10.0 mi East 8.1 mph - N/A   Clear
6:35 PM 75.2 °F 46.4 °F 36% 29.91 in 10.0 mi East 6.9 mph - N/A   Clear
6:55 PM 73.4 °F 46.4 °F 38% 29.91 in 10.0 mi ENE 6.9 mph - N/A   Clear
7:14 PM 73.4 °F 46.4 °F 38% 29.91 in 10.0 mi ENE 5.8 mph - N/A   Clear
7:35 PM 73.4 °F 48.2 °F 41% 29.91 in 10.0 mi Calm Calm - N/A   Clear
7:55 PM 73.4 °F 46.4 °F 38% 29.91 in 10.0 mi East 3.5 mph - N/A   Clear
8:14 PM 71.6 °F 48.2 °F 43% 29.91 in 10.0 mi ENE 3.5 mph - N/A   Clear
8:35 PM 71.6 °F 48.2 °F 43% 29.91 in 10.0 mi Calm Calm - N/A   Clear
8:55 PM 69.8 °F 48.2 °F 46% 29.92 in 10.0 mi Calm Calm - N/A   Clear
9:14 PM 68.0 °F 48.2 °F 49% 29.92 in 10.0 mi ENE 3.5 mph - N/A   Clear
9:35 PM 68.0 °F 46.4 °F 46% 29.93 in 10.0 mi ENE 4.6 mph - N/A   Clear
9:55 PM 68.0 °F 46.4 °F 46% 29.93 in 10.0 mi East 5.8 mph - N/A   Clear
10:14 PM 68.0 °F 46.4 °F 46% 29.94 in 10.0 mi East 5.8 mph - N/A   Scattered Clouds
10:35 PM 66.2 °F 44.6 °F 46% 29.95 in 10.0 mi ENE 4.6 mph - N/A   Overcast
10:55 PM 66.2 °F 44.6 °F 46% 29.95 in 10.0 mi East 4.6 mph - N/A   Scattered Clouds
11:14 PM 64.4 °F 44.6 °F 49% 29.93 in 10.0 mi SE 5.8 mph - N/A   Clear
11:35 PM 64.4 °F 44.6 °F 49% 29.90 in 10.0 mi SE 4.6 mph - N/A   Clear
11:55 PM 64.4 °F 46.4 °F 52% 29.92 in 10.0 mi Calm Calm - N/A   Clear